TimeCDT,TemperatureF,Dew PointF,Humidity,Sea Level PressureIn,VisibilityMPH,Wind Direction,Wind SpeedMPH,Gust SpeedMPH,PrecipitationIn,Events,Conditions,WindDirDegrees,DateUTC
12:52 AM,60.1,51.1,72,30.14,10.0,NNW,3.5,-,N/A,,Clear,330,2013-07-01 05:52:00
1:52 AM,55.0,50.0,83,30.15,9.0,WNW,3.5,-,N/A,,Clear,290,2013-07-01 06:52:00
2:52 AM,55.0,51.1,86,30.16,8.0,NW,3.5,-,N/A,,Clear,310,2013-07-01 07:52:00
3:52 AM,54.0,51.1,90,30.16,8.0,WNW,5.8,-,N/A,,Clear,290,2013-07-01 08:52:00
4:52 AM,54.0,51.1,90,30.17,8.0,WNW,3.5,-,N/A,,Clear,290,2013-07-01 09:52:00
5:52 AM,53.1,51.1,93,30.18,7.0,WNW,4.6,-,N/A,,Clear,300,2013-07-01 10:52:00
6:52 AM,57.0,52.0,83,30.19,7.0,Calm,Calm,-,N/A,,Clear,0,2013-07-01 11:52:00
7:52 AM,61.0,54.0,78,30.20,8.0,NW,5.8,-,N/A,,Clear,320,2013-07-01 12:52:00
8:52 AM,66.0,55.0,68,30.20,8.0,NNW,5.8,-,N/A,,Clear,340,2013-07-01 13:52:00
9:52 AM,72.0,55.9,57,30.20,10.0,NNW,5.8,-,N/A,,Clear,330,2013-07-01 14:52:00
10:52 AM,77.0,57.0,50,30.19,10.0,North,8.1,-,N/A,,Clear,350,2013-07-01 15:52:00
11:52 AM,81.0,52.0,36,30.19,10.0,NNE,10.4,-,N/A,,Partly Cloudy,20,2013-07-01 16:52:00
12:52 PM,82.0,53.1,37,30.17,10.0,NNE,11.5,18.4,N/A,,Partly Cloudy,30,2013-07-01 17:52:00
1:52 PM,82.9,53.1,36,30.16,10.0,ENE,11.5,-,N/A,,Scattered Clouds,60,2013-07-01 18:52:00
2:52 PM,82.0,50.0,33,30.15,10.0,NE,8.1,-,N/A,,Mostly Cloudy,50,2013-07-01 19:52:00
3:52 PM,84.0,48.9,29,30.14,10.0,ENE,9.2,-,N/A,,Partly Cloudy,70,2013-07-01 20:52:00
4:52 PM,82.0,48.0,30,30.13,9.0,NE,6.9,-,N/A,,Partly Cloudy,40,2013-07-01 21:52:00
5:52 PM,82.9,48.0,29,30.13,10.0,NE,10.4,-,N/A,,Clear,40,2013-07-01 22:52:00
6:52 PM,82.0,50.0,33,30.12,10.0,NE,5.8,-,N/A,,Clear,40,2013-07-01 23:52:00
7:52 PM,79.0,53.1,40,30.13,10.0,NNE,4.6,-,N/A,,Clear,20,2013-07-02 00:52:00
8:52 PM,73.9,55.9,53,30.12,10.0,Calm,Calm,-,N/A,,Clear,0,2013-07-02 01:52:00
9:52 PM,70.0,54.0,57,30.13,10.0,Calm,Calm,-,N/A,,Clear,0,2013-07-02 02:52:00
10:52 PM,63.0,54.0,72,30.14,10.0,Calm,Calm,-,N/A,,Scattered Clouds,0,2013-07-02 03:52:00
11:52 PM,62.1,55.9,80,30.13,9.0,Calm,Calm,-,N/A,,Clear,0,2013-07-02 04:52:00